Location: Newark
(44.3681°N, 100.3364°W)
Time: 08:30:28
(UTC+00:00)

Explorer 7 - Pass Details

Date: 22 February 2020
Orbit: 485 x 679 km, 50.3° (Epoch: 08 April)

Event Time Altitude Azimuth Distance (km) Brightness Sun altitude
Rises 19:31:39 0° 251° (WSW) 2,952 10.9 34.8°
Reaches altitude 10° 19:34:03 10° 255° (WSW) 2,017 10.1 34.7°
Maximum altitude 19:38:40 65° 337° (NNW) 671 7.5 34.6°
Drops below altitude 10° 19:43:00 10° 60° (ENE) 1,901 9.3 34.4°
Sets 19:45:13 0° 64° (ENE) 2,767 10.1 34.3°
